This is the latest recevied weather packets stored in our database for station/object N9WHM. If no packets are shown the sender has not sent any weather packets the latest 10 day(s).
| Time | Temp. | Humidity | Pressure | Rain* | Wind** | Luminosity | Snow |
|---|---|---|---|---|---|---|---|
| 1777750440 | 18.33° C | 30% | 1017.7 hPa | 0 mm | - | 744 W/m² | - |
| 1777750135 | 18.89° C | 30% | 1017.9 hPa | 0 mm | - | 745 W/m² | - |
| 1777749833 | 18.89° C | 31% | 1017.9 hPa | 0 mm | - | 748 W/m² | - |
| 1777749530 | 18.89° C | 30% | 1017.9 hPa | 0 mm | - | 755 W/m² | - |
| 1777749228 | 19.44° C | 28% | 1017.9 hPa | 0 mm | - | 761 W/m² | - |
| 1777748925 | 18.89° C | 29% | 1018.1 hPa | 0 mm | - | 762 W/m² | - |
| 1777748622 | 18.33° C | 29% | 1017.9 hPa | 0 mm | - | 766 W/m² | - |
| 1777748318 | 17.78° C | 33% | 1018.3 hPa | 0 mm | - | 769 W/m² | - |
| 1777748013 | 17.78° C | 30% | 1018.2 hPa | 0 mm | - | 771 W/m² | - |
| 1777747711 | 17.78° C | 29% | 1018.6 hPa | 0 mm | - | 773 W/m² | - |
| 1777747406 | 17.78° C | 31% | 1018.6 hPa | 0 mm | - | 769 W/m² | - |
| 1777747103 | 18.33° C | 31% | 1018.6 hPa | 0 mm | - | 772 W/m² | - |
| 1777746799 | 16.67° C | 30% | 1018.9 hPa | 0 mm | - | 774 W/m² | - |
| 1777746494 | 17.22° C | 31% | 1018.7 hPa | 0 mm | - | 774 W/m² | - |
| 1777746190 | 17.78° C | 31% | 1018.7 hPa | 0 mm | - | 776 W/m² | - |
| 1777745887 | 16.67° C | 29% | 1018.9 hPa | 0 mm | - | 772 W/m² | - |
| 1777745586 | 16.67° C | 32% | 1019.1 hPa | 0 mm | - | 768 W/m² | - |
| 1777745283 | 17.22° C | 30% | 1019 hPa | 0 mm | - | 768 W/m² | - |
| 1777744980 | 16.67° C | 30% | 1019.3 hPa | 0 mm | - | 765 W/m² | - |
| 1777744675 | 17.22° C | 31% | 1019.3 hPa | 0 mm | - | 764 W/m² | - |
| 1777744370 | 16.11° C | 32% | 1019.4 hPa | 0 mm | - | 756 W/m² | - |
| 1777744067 | 16.11° C | 32% | 1019.2 hPa | 0 mm | - | 754 W/m² | - |
| 1777743764 | 16.67° C | 31% | 1019.4 hPa | 0 mm | - | 751 W/m² | - |
| 1777743461 | 16.11° C | 33% | 1019.3 hPa | 0 mm | - | 748 W/m² | - |
| 1777743159 | 16.11° C | 33% | 1019.6 hPa | 0 mm | - | 740 W/m² | - |
* Rain latest hour (hover to see other rain measurements)
** Current wind speed in m/s (hover to see current wind gust speed)